Weather History for Longville, MN

Change the Weather History Date:

Friday, May 24, 2013

  Actual Average (KPWC) Record (KPWC)
Temperature  
Mean Temperature 50 °F -  
Max Temperature 66 °F 65 °F 84 °F (2014)
Min Temperature 33 °F 42 °F 30 °F (2004)
Degree Days  
Heating Degree Days 16    
Moisture  
Dew Point 34 °F    
Average Humidity 56    
Maximum Humidity 100    
Minimum Humidity 24    
Precipitation  
Precipitation 0.00 in - - ()
Sea Level Pressure  
Sea Level Pressure 30.29 in    
Wind  
Wind Speed 4 mph (SSE)    
Max Wind Speed 15 mph    
Max Gust Speed 21 mph    
Visibility 10 miles    
Events Rain , Thunderstorm    
Averages and records for this station are not official NWS values.
T = Trace of Precipitation, MM = Missing Value Source: NWS Daily Summary

Daily Weather History Graph

Daily Weather History Graph

Search for Another Location

Airport:

Trip Planner

Search our weather history database for the weather conditions in past years. The results will help you decide how hot, cold, wet, or windy it might be!

Date:

Astronomy

May. 24, 2013 Rise Set
Actual Time 5:31 AM CDT 8:56 PM CDT
Civil Twilight 4:54 AM CDT 9:34 PM CDT
Nautical Twilight 4:04 AM CDT 10:23 PM CDT
Astronomical Twilight 3:01 AM CDT 11:28 PM CDT
Moon 8:37 PM CDT (5/24) 5:07 AM CDT (5/24)
Length of Visible Light 16h 39m
Length of Day
15h 24m
Full, 100% of the Moon is Illuminated
May 24
Full
May 24
Full
May 31
Last Quarter
Jun 8
New
Jun 16
First Quarter

Hourly Weather History & Observations

Time (CDT) Temp. Windchill Dew Point Humidity Pressure Visibility Wind Dir Wind Speed Gust Speed Precip Events Conditions
12:16 AM 39.2 °F - 37.4 °F 93% 30.32 in 10.0 mi Calm Calm - N/A   Clear
12:36 AM 37.4 °F - 37.4 °F 100% 30.33 in 10.0 mi Calm Calm - N/A   Clear
12:56 AM 37.4 °F - 35.6 °F 93% 30.32 in 10.0 mi Calm Calm - N/A   Clear
1:16 AM 37.4 °F - 35.6 °F 93% 30.32 in 10.0 mi Calm Calm - N/A   Clear
1:36 AM 37.4 °F - 35.6 °F 93% 30.32 in 10.0 mi Calm Calm - N/A   Clear
1:56 AM 37.4 °F - 35.6 °F 93% 30.32 in 10.0 mi Calm Calm - N/A   Clear
2:16 AM 35.6 °F - 35.6 °F 100% 30.33 in 10.0 mi Calm Calm - N/A   Clear
2:36 AM 35.6 °F - 35.6 °F 100% 30.33 in 10.0 mi Calm Calm - N/A   Clear
2:56 AM 35.6 °F - 35.6 °F 100% 30.33 in 10.0 mi Calm Calm - N/A   Clear
3:16 AM 35.6 °F - 33.8 °F 93% 30.33 in 10.0 mi Calm Calm - N/A   Clear
3:36 AM 35.6 °F - 33.8 °F 93% 30.33 in 10.0 mi Calm Calm - N/A   Clear
3:56 AM 35.6 °F - 33.8 °F 93% 30.33 in 10.0 mi Calm Calm - N/A   Clear
4:16 AM 33.8 °F - 33.8 °F 100% 30.33 in 10.0 mi Calm Calm - N/A   Clear
4:37 AM 33.8 °F - 33.8 °F 100% 30.33 in 10.0 mi Calm Calm - N/A   Clear
4:56 AM 33.8 °F - 33.8 °F 100% 30.33 in 10.0 mi Calm Calm - N/A   Clear
5:16 AM 33.8 °F - 33.8 °F 100% 30.33 in 10.0 mi Calm Calm - N/A   Clear
5:36 AM 33.8 °F - 33.8 °F 100% 30.34 in 10.0 mi Calm Calm - N/A   Clear
5:56 AM 33.8 °F - 32.0 °F 93% 30.34 in 10.0 mi Calm Calm - N/A   Clear
6:16 AM 33.8 °F - 33.8 °F 100% 30.35 in 10.0 mi Calm Calm - N/A   Clear
6:36 AM 33.8 °F - 33.8 °F 100% 30.35 in 10.0 mi Calm Calm - N/A   Clear
6:56 AM 35.6 °F - 35.6 °F 100% 30.36 in 10.0 mi Calm Calm - N/A   Clear
7:16 AM 39.2 °F 37.0 °F 39.2 °F 100% 30.35 in 10.0 mi SE 3.5 mph - N/A   Clear
7:36 AM 44.6 °F 42.2 °F 35.6 °F 71% 30.35 in 10.0 mi SSE 4.6 mph - N/A   Clear
7:56 AM 48.2 °F - 33.8 °F 58% 30.35 in 10.0 mi SSE 10.4 mph - N/A   Clear
8:16 AM 50.0 °F - 32.0 °F 50% 30.35 in 10.0 mi SSE 12.7 mph - N/A   Clear
8:36 AM 51.8 °F - 30.2 °F 44% 30.35 in 10.0 mi SSE 12.7 mph - N/A   Clear
8:56 AM 53.6 °F - 30.2 °F 41% 30.35 in 10.0 mi SSE 10.4 mph - N/A   Clear
9:16 AM 55.4 °F - 30.2 °F 38% 30.35 in 10.0 mi South 8.1 mph - N/A   Clear
9:36 AM 55.4 °F - 30.2 °F 38% 30.35 in 10.0 mi South 9.2 mph - N/A   Clear
9:56 AM 57.2 °F - 30.2 °F 36% 30.34 in 10.0 mi South 9.2 mph - N/A   Clear
10:16 AM 57.2 °F - 30.2 °F 36% 30.34 in 10.0 mi South 8.1 mph - N/A   Clear
10:36 AM 59.0 °F - 33.8 °F 39% 30.33 in 10.0 mi SSE 8.1 mph - N/A   Clear
10:56 AM 60.8 °F - 30.2 °F 31% 30.33 in 10.0 mi SSE 11.5 mph 16.1 mph N/A   Clear
11:16 AM 60.8 °F - 30.2 °F 31% 30.32 in 10.0 mi South 8.1 mph - N/A   Clear
11:36 AM 62.6 °F - 32.0 °F 32% 30.32 in 10.0 mi SSE 12.7 mph - N/A   Clear
11:56 AM 62.6 °F - 30.2 °F 30% 30.32 in 10.0 mi SE 10.4 mph 18.4 mph N/A   Clear
12:16 PM 62.6 °F - 30.2 °F 30% 30.31 in 10.0 mi South 9.2 mph 17.3 mph N/A   Clear
12:36 PM 62.6 °F - 30.2 °F 30% 30.31 in 10.0 mi SE 10.4 mph 17.3 mph N/A   Clear
12:56 PM 62.6 °F - 30.2 °F 30% 30.30 in 10.0 mi South 13.8 mph - N/A   Clear
1:16 PM 64.4 °F - 30.2 °F 28% 30.29 in 10.0 mi SSE 15.0 mph 19.6 mph N/A   Clear
1:36 PM 64.4 °F - 30.2 °F 28% 30.28 in 10.0 mi SSE 13.8 mph 17.3 mph N/A   Clear
1:56 PM 64.4 °F - 30.2 °F 28% 30.26 in 10.0 mi ESE 5.8 mph 16.1 mph N/A   Clear
2:16 PM 66.2 °F - 28.4 °F 24% 30.25 in 10.0 mi SE 10.4 mph 20.7 mph N/A   Clear
2:36 PM 62.6 °F - 30.2 °F 30% 30.25 in 10.0 mi SSE 9.2 mph 16.1 mph N/A   Clear
2:56 PM 62.6 °F - 28.4 °F 27% 30.25 in 10.0 mi SSE 12.7 mph - N/A   Clear
3:16 PM 64.4 °F - 30.2 °F 28% 30.24 in 10.0 mi SSE 10.4 mph - N/A   Clear
3:36 PM 66.2 °F - 30.2 °F 26% 30.25 in 10.0 mi SSE 12.7 mph 17.3 mph N/A   Clear
3:56 PM 66.2 °F - 28.4 °F 24% 30.25 in 10.0 mi SSE 12.7 mph 16.1 mph N/A   Clear
4:16 PM 66.2 °F - 30.2 °F 26% 30.26 in 10.0 mi SSE 10.4 mph - N/A   Clear
4:36 PM 64.4 °F - 32.0 °F 30% 30.25 in 10.0 mi SSE 8.1 mph - N/A   Clear
4:56 PM 66.2 °F - 32.0 °F 28% 30.26 in 10.0 mi SSE 10.4 mph 17.3 mph N/A   Clear
5:16 PM 62.6 °F - 33.8 °F 34% 30.24 in 10.0 mi SE 8.1 mph 16.1 mph N/A   Clear
5:36 PM 62.6 °F - 32.0 °F 32% 30.24 in 10.0 mi SSE 8.1 mph - N/A   Clear
5:56 PM 62.6 °F - 33.8 °F 34% 30.24 in 10.0 mi SSE 6.9 mph - N/A   Clear
6:22 PM 62.6 °F - 32.0 °F 32% 30.23 in 10.0 mi South 9.2 mph - N/A   Clear
6:36 PM 60.8 °F - 32.0 °F 34% 30.23 in 10.0 mi SSE 5.8 mph - N/A   Clear
6:56 PM 60.8 °F - 33.8 °F 36% 30.23 in 10.0 mi South 5.8 mph - N/A Thunderstorm Clear
7:16 PM 60.8 °F - 32.0 °F 34% 30.23 in 10.0 mi South 5.8 mph - N/A   Clear
7:36 PM 59.0 °F - 33.8 °F 39% 30.23 in 10.0 mi South 3.5 mph - N/A   Clear
7:56 PM 57.2 °F - 35.6 °F 44% 30.23 in 10.0 mi Calm Calm - N/A   Clear
8:16 PM 57.2 °F - 39.2 °F 51% 30.23 in 10.0 mi Calm Calm - N/A   Clear
8:36 PM 57.2 °F - 39.2 °F 51% 30.23 in 10.0 mi Calm Calm - N/A   Clear
8:56 PM 55.4 °F - 39.2 °F 54% 30.22 in 10.0 mi Calm Calm - N/A   Clear
9:16 PM 55.4 °F - 39.2 °F 54% 30.22 in 10.0 mi Calm Calm - N/A   Clear
9:36 PM 55.4 °F - 37.4 °F 51% 30.23 in 10.0 mi SE 4.6 mph - N/A   Scattered Clouds
9:56 PM 57.2 °F - 35.6 °F 44% 30.22 in 10.0 mi SE 5.8 mph - N/A Rain Light Rain
10:16 PM 57.2 °F - 35.6 °F 44% 30.23 in 10.0 mi SSE 4.6 mph - N/A   Scattered Clouds
10:36 PM 57.2 °F - 35.6 °F 44% 30.24 in 10.0 mi South 4.6 mph - N/A   Clear
10:56 PM 57.2 °F - 35.6 °F 44% 30.24 in 10.0 mi South 5.8 mph - N/A   Clear
11:16 PM 57.2 °F - 37.4 °F 48% 30.24 in 10.0 mi SSW 5.8 mph - N/A   Scattered Clouds
11:36 PM 55.4 °F - 41.0 °F 58% 30.25 in 10.0 mi SSW 3.5 mph - N/A Rain Rain
11:56 PM 53.6 °F - 42.8 °F 67% 30.24 in 10.0 mi Calm Calm - N/A   Mostly Cloudy